Weather History for Greensboro, GA

Change the Weather History Date:

Tuesday, April 29, 2014

  Actual Average (KDBN) Record (KDBN)
Temperature  
Mean Temperature 70 °F -  
Max Temperature 75 °F 81 °F 93 °F (1954)
Min Temperature 64 °F 51 °F 38 °F (1979)
Cooling Degree Days 4    
Growing Degree Days 20 (Base 50)    
Moisture  
Dew Point 62 °F    
Average Humidity 77    
Maximum Humidity 94    
Minimum Humidity 61    
Precipitation  
Precipitation 0.00 in - - ()
Sea Level Pressure  
Sea Level Pressure 29.83 in    
Wind  
Wind Speed 5 mph (SSE)    
Max Wind Speed 17 mph    
Max Gust Speed 29 mph    
Visibility 10 miles    
Events Rain , Thunderstorm    
Averages and records for this station are not official NWS values.
T = Trace of Precipitation, MM = Missing Value Source: NWS Daily Summary

Daily Weather History Graph

Daily Weather History Graph

Search for Another Location

Airport:

Trip Planner

Search our weather history database for the weather conditions in past years. The results will help you decide how hot, cold, wet, or windy it might be!

Date:

Astronomy

Apr. 29, 2014 Rise Set
Actual Time 6:46 AM EDT 8:14 PM EDT
Civil Twilight 6:19 AM EDT 8:40 PM EDT
Nautical Twilight 5:48 AM EDT 9:12 PM EDT
Astronomical Twilight 5:15 AM EDT 9:45 PM EDT
Moon 7:03 AM EDT (4/29) 8:52 PM EDT (4/29)
Length of Visible Light 14h 20m
Length of Day
13h 28m
New Moon, 0% of the Moon is Illuminated
Apr 29
New Moon
May 6
First Quarter
May 14
Full
May 21
Last Quarter
May 28
New

Hourly Weather History & Observations

Time (EDT) Temp. Dew Point Humidity Pressure Visibility Wind Dir Wind Speed Gust Speed Precip Events Conditions
12:15 AM 71.6 °F 64.4 °F 78% 29.80 in 10.0 mi SE 5.8 mph - N/A   Clear
12:35 AM 71.6 °F 64.4 °F 78% 29.80 in 10.0 mi SSE 5.8 mph - N/A   Clear
12:55 AM 71.6 °F 64.4 °F 78% 29.80 in 10.0 mi SSE 4.6 mph - N/A   Clear
1:15 AM 71.6 °F 64.4 °F 78% 29.81 in 10.0 mi SE 3.5 mph - N/A   Clear
1:35 AM 71.6 °F 64.4 °F 78% 29.81 in 10.0 mi SSE 5.8 mph - N/A   Clear
1:55 AM 71.6 °F 62.6 °F 73% 29.81 in 10.0 mi SSE 6.9 mph - N/A   Clear
2:15 AM 71.6 °F 62.6 °F 73% 29.80 in 10.0 mi South 4.6 mph - N/A   Clear
2:35 AM 71.6 °F 62.6 °F 73% 29.80 in 10.0 mi SSE 5.8 mph - N/A   Clear
2:55 AM 69.8 °F 62.6 °F 78% 29.79 in 10.0 mi SSE 4.6 mph - N/A   Clear
3:15 AM 69.8 °F 62.6 °F 78% 29.79 in 10.0 mi South 4.6 mph - N/A   Clear
3:35 AM 69.8 °F 62.6 °F 78% 29.80 in 10.0 mi South 4.6 mph - N/A   Clear
3:55 AM 69.8 °F 62.6 °F 78% 29.81 in 10.0 mi South 3.5 mph - N/A   Clear
4:15 AM 69.8 °F 62.6 °F 78% 29.80 in 10.0 mi SSE 5.8 mph - N/A   Clear
4:55 AM 68.0 °F 62.6 °F 83% 29.79 in 10.0 mi South 5.8 mph - N/A   Clear
5:15 AM 68.0 °F 62.6 °F 83% 29.79 in 10.0 mi South 3.5 mph - N/A   Clear
5:35 AM 68.0 °F 62.6 °F 83% 29.81 in 10.0 mi SSE 4.6 mph - N/A   Clear
5:55 AM 68.0 °F 62.6 °F 83% 29.82 in 10.0 mi SSE 3.5 mph - N/A   Clear
6:15 AM 66.2 °F 62.6 °F 88% 29.83 in 10.0 mi SSE 4.6 mph - N/A   Light Drizzle
6:35 AM 66.2 °F 62.6 °F 88% 29.84 in 10.0 mi SSE 5.8 mph - N/A Rain , Thunderstorm Light Thunderstorms and Rain
6:55 AM 64.4 °F 62.6 °F 94% 29.85 in 7.0 mi South 4.6 mph - N/A Rain Light Rain
7:15 AM 64.4 °F 62.6 °F 94% 29.87 in 4.0 mi SSW 4.6 mph - N/A Rain , Thunderstorm Heavy Thunderstorms and Rain
7:35 AM 64.4 °F 62.6 °F 94% 29.85 in 3.0 mi ESE 5.8 mph - N/A Rain Rain
7:55 AM 64.4 °F 62.6 °F 94% 29.80 in 3.0 mi ESE 10.4 mph - N/A   Mostly Cloudy
8:10 AM 64.4 °F 62.6 °F 94% 29.83 in 4.0 mi SSE 15.0 mph 20.7 mph N/A Rain Rain
8:55 AM 64.4 °F 62.6 °F 94% 29.72 in 10.0 mi SSE 17.3 mph 28.8 mph N/A   Unknown
9:15 AM 66.2 °F 60.8 °F 83% 29.77 in 10.0 mi South 12.7 mph 21.9 mph N/A   Clear
9:35 AM 68.0 °F 60.8 °F 78% 29.76 in 10.0 mi SSW 5.8 mph - N/A   Clear
9:55 AM 68.0 °F 60.8 °F 78% 29.79 in 10.0 mi WSW 3.5 mph - N/A   Clear
10:15 AM 68.0 °F 62.6 °F 83% 29.81 in 10.0 mi Calm Calm - N/A   Scattered Clouds
10:35 AM 68.0 °F 62.6 °F 83% 29.81 in 10.0 mi Calm Calm - N/A   Scattered Clouds
10:55 AM 68.0 °F 62.6 °F 83% 29.82 in 10.0 mi SW 4.6 mph - N/A   Clear
11:15 AM 69.8 °F 62.6 °F 78% 29.84 in 10.0 mi South 4.6 mph - N/A   Clear
11:35 AM 69.8 °F 62.6 °F 78% 29.84 in 10.0 mi South 4.6 mph - N/A   Clear
11:55 AM 69.8 °F 62.6 °F 78% 29.84 in 10.0 mi South 6.9 mph - N/A   Clear
12:15 PM 71.6 °F 62.6 °F 73% 29.83 in 10.0 mi SSW 3.5 mph - N/A   Clear
12:35 PM 71.6 °F 60.8 °F 69% 29.83 in 10.0 mi South 8.1 mph - N/A   Clear
12:55 PM 71.6 °F 60.8 °F 69% 29.83 in 10.0 mi South 6.9 mph - N/A   Clear
1:15 PM 71.6 °F 60.8 °F 69% 29.83 in 10.0 mi South 8.1 mph - N/A   Clear
1:35 PM 71.6 °F 60.8 °F 69% 29.84 in 10.0 mi South 10.4 mph - N/A   Clear
1:55 PM 71.6 °F 62.6 °F 73% 29.84 in 10.0 mi South 5.8 mph - N/A   Clear
2:15 PM 73.4 °F 60.8 °F 65% 29.84 in 10.0 mi South 8.1 mph - N/A   Clear
2:35 PM 73.4 °F 60.8 °F 65% 29.85 in 10.0 mi South 8.1 mph - N/A   Clear
2:55 PM 73.4 °F 60.8 °F 65% 29.85 in 10.0 mi South 5.8 mph - N/A   Clear
3:15 PM 73.4 °F 60.8 °F 65% 29.85 in 10.0 mi South 5.8 mph - N/A   Clear
3:35 PM 73.4 °F 60.8 °F 65% 29.85 in 10.0 mi South 5.8 mph - N/A   Clear
3:55 PM 73.4 °F 60.8 °F 65% 29.84 in 10.0 mi SSE 8.1 mph - N/A   Clear
4:15 PM 73.4 °F 60.8 °F 65% 29.84 in 10.0 mi South 5.8 mph - N/A   Clear
4:35 PM 75.2 °F 60.8 °F 61% 29.84 in 10.0 mi South 5.8 mph - N/A   Clear
4:55 PM 75.2 °F 60.8 °F 61% 29.83 in 10.0 mi SSE 6.9 mph - N/A   Clear
5:15 PM 75.2 °F 62.6 °F 65% 29.83 in 10.0 mi South 6.9 mph - N/A   Clear
5:35 PM 75.2 °F 62.6 °F 65% 29.84 in 10.0 mi SSE 6.9 mph - N/A   Clear
5:55 PM 75.2 °F 60.8 °F 61% 29.86 in 10.0 mi SSE 5.8 mph - N/A   Clear
6:35 PM 73.4 °F 62.6 °F 69% 29.86 in 10.0 mi SSE 5.8 mph - N/A   Clear
6:55 PM 73.4 °F 60.8 °F 65% 29.86 in 10.0 mi South 4.6 mph - N/A   Clear
7:15 PM 71.6 °F 60.8 °F 69% 29.85 in 10.0 mi Calm Calm - N/A   Clear
7:35 PM 71.6 °F 62.6 °F 73% 29.85 in 10.0 mi ESE 3.5 mph - N/A   Clear
7:55 PM 69.8 °F 62.6 °F 78% 29.86 in 10.0 mi Calm Calm - N/A   Clear
8:15 PM 69.8 °F 62.6 °F 78% 29.87 in 10.0 mi ESE 3.5 mph - N/A   Clear
8:35 PM 69.8 °F 62.6 °F 78% 29.87 in 10.0 mi ESE 3.5 mph - N/A   Clear
8:55 PM 68.0 °F 62.6 °F 83% 29.87 in 10.0 mi Calm Calm - N/A   Clear
9:15 PM 68.0 °F 62.6 °F 83% 29.87 in 10.0 mi ESE 3.5 mph - N/A   Clear
9:35 PM 68.0 °F 62.6 °F 83% 29.88 in 10.0 mi SE 3.5 mph - N/A   Clear
9:55 PM 68.0 °F 62.6 °F 83% 29.90 in 10.0 mi Calm Calm - N/A   Clear
10:35 PM 68.0 °F 62.6 °F 83% 29.90 in 10.0 mi Calm Calm - N/A   Clear
10:55 PM 68.0 °F 60.8 °F 78% 29.91 in 10.0 mi SE 4.6 mph - N/A   Clear
11:15 PM 68.0 °F 60.8 °F 78% 29.91 in 10.0 mi Calm Calm - N/A   Clear
11:35 PM 68.0 °F 60.8 °F 78% 29.91 in 10.0 mi Calm Calm - N/A   Clear
11:55 PM 68.0 °F 60.8 °F 78% 29.91 in 10.0 mi East 3.5 mph - N/A   Clear